Regional Weather Roundup
Issued by NWS

Home | Current Version | Previous Version | Text Only | Print | Product List | Glossary Off
Versions: 1 2 3 4 5 6 7 8 9 10 11 12 13 14 15 16 17 18 19 20 21 22 23 24 25 26 27 28 29 30 31 32 33 34 35 36 37 38 39 40 41 42 43 44 45 46 47 48 49

000
ASUS45 KCYS 020310
RWRWY

WYOMING REGIONAL WEATHER ROUNDUP
NATIONAL WEATHER SERVICE CHEYENNE WY
800 PM MST SUN MAR 01 2015

NOTE:  "FAIR" INDICATES FEW OR NO CLOUDS BELOW 12,000 FEET
WITH NO SIGNIFICANT WEATHER AND/OR OBSTRUCTIONS TO VISIBILITY.

WYZ001-020400-
YELLOWSTONE NATIONAL PARK

CITY           SKY/WX    TMP DP  RH WIND       PRES   REMARKS
LK YELLOWSTONE   N/A      0  -8  69 CALM      30.00S
W YELLOWSTONE  NOT AVBL

$$
WYZ002>013-054>058-071-098>099-020400-
NORTHERN WYOMING

CITY           SKY/WX    TMP DP  RH WIND       PRES   REMARKS
JACKSON        CLEAR      9   3  78 VRB6      30.02R WCI  -1
CODY           FAIR      19  12  73 S12       30.05F WCI   7
GREYBULL       FAIR      23   8  52 SE6       30.13F WCI  16
WORLAND        FAIR      22  11  62 SE12      30.12F WCI  10
SHERIDAN       FAIR      13   4  67 S5        30.12F WCI   5
BUFFALO        FAIR      17   8  67 S12       30.10F WCI   4
GILLETTE       FAIR      12   5  73 S10       30.16F WCI  -1
HULETT         FAIR      14   3  62 SE7       30.20F WCI   4
NEWCASTLE      FAIR      18   1  49 E5        30.23F WCI  11

$$
WYZ014>020-022>026-101>103-020400-
CENTRAL WYOMING

CITY           SKY/WX    TMP DP  RH WIND       PRES   REMARKS
BIG PINEY      FAIR      21  15  78 CALM      30.05R
PINEDALE       FAIR      10   9  92 W6        30.05S WCI   1
DUBOIS         FAIR      10   7  85 CALM      30.02S
LANDER         FAIR      17   9  70 CALM      30.09S
RIVERTON       FAIR      17   7  64 E3        30.10F
CASPER         FAIR      22  13  68 E10       30.12F WCI  11
DOUGLAS        FAIR      22  11  62 E9        30.17F WCI  12

$$
WYZ021-027>030-104>119-020400-
SOUTHERN WYOMING

CITY           SKY/WX    TMP DP  RH WIND       PRES   REMARKS
EVANSTON       LGT SNOW  26  21  81 E7        30.01F WCI  18
FORT BRIDGER   MOCLDY    25  22  89 CALM      30.03F
ROCK SPRINGS   FAIR      26  17  68 N6        30.04S WCI  19
DIXON          CLOUDY    31  24  76 E3        30.09S
RAWLINS        FAIR      24  15  68 NE8       30.06S WCI  15
SARATOGA       CLOUDY    27  21  80 S6        30.08R WCI  20
LARAMIE        CLOUDY    16  13  88 S16       30.09S WCI   1
CHEYENNE       CLOUDY    20  14  77 SW13      30.17S WCI   7
TORRINGTON     FAIR      23   7  50 E7        30.24R WCI  15
PINE BLUFFS    CLOUDY    27  19  74 S6        30.24R WCI  20

$$



USA.gov is the U.S. government's official web portal to all federal, state and local government web resources and services.